User: anonymous   Login
Location: Unspecified
(0.0000°N, 0.0000°E)
Time: 13:12:29
(UTC+00:00)
Language:

SPEKTR R - Orbit

View from above orbital plane
View from above orbital plane
View from above satellite
View from above satellite

Ground track
Ground track

The orbit data is extracted from the following two-line orbital elements,

1 37755U 11037A   20263.86582055 -.00002509 +00000+0 +00000+0 0  9996
2 37755  43.9478  10.5651 9083226 286.8850 356.7564  0.10276685003700
Epoch (UTC): 19 September 2020 20:46:46
Eccentricity: 0.9083226
inclination: 43.9478°
perigee height: 11272 km
apogee height: 361028 km
right ascension of ascending node: 10.5651°
argument of perigee: 286.8850°
revolutions per day: 0.10276685
mean anomaly at epoch: 356.7564°
orbit number at epoch: 370

The dashed part of the orbit path shows where the satellite is in the earth's shadow,  

DLR